Weather in Bashkatovo

Russia / Kursk Oblast     51°15′46″N   35°58′38″E
temp.,
°C
wind,
m/s
gust,
m/s
humid.,
%
clouds,
%
prec.,
mm/h
press.,
hPa
HPBL,
m
1 august, sun
sun100:00+21nnw11574 0.0 101111
03:00+19sse11620 0.0 101211
06:00+20se116425 0.0 101211
09:00+27s23445 0.0 1012447
12:00+31sw35315 0.0 10112797
15:00+33wsw462563 0.0 10103371
18:00+30wnw5837100 0.0 1010439
21:00+24ese004888 0.0 101111
2 august, mon
mon200:00+22nw22546 0.0 101120
03:00+22ssw355316 0.0 101168
06:00+22s38552 0.0 1010143
09:00+29ssw594010 0.1 1010746
12:00+33ssw792939 0.0 10092720
15:00+35sw782539 0.0 10073261
18:00+29sw91245100 0.2 1005853
21:00+20sw81679100 2.3 1009421
3 august, tue
tue300:00+19sw41284100 0.1 1008343
03:00+18sw389257 0.1 1008290
06:00+18wsw389885 0.1 1010324
09:00+21wnw567475 0.1 1011706
12:00+23nw6659100 0.0 10121242
15:00+24nw5550100 0.0 10121637
18:00+23nnw46510 0.0 1012803
21:00+20nnw366358 0.0 1014161
4 august, wed
wed400:00+17nw33711 0.0 101544
03:00+15wnw11870 0.0 101611
06:00+17wsw2276100 0.0 101787
09:00+21wnw2454100 0.1 1017775
12:00+23w344299 0.0 10181423
15:00+26wnw453097 0.0 10172595
18:00+25wnw453124 0.0 10172491
21:00+18ne34551 0.0 101853
5 august, thu
thu500:00+17e2255100 0.0 101827
03:00+15se226113 0.0 101824
06:00+15se236181 0.0 101845
09:00+21s3442100 0.0 1018332
12:00+20nw3449100 0.0 1019174
15:00+20ene3450100 0.0 1017117
18:00+21ese2348100 0.0 101659
21:00+20ese355193 0.1 101677